Location: Barruelo
(41.2448°N, 3.8231°W)
Time: 14:42:00
(UTC+00:00)

Cosmos 724 - Pass Details

Date: 11 December 2025
Orbit: 853 x 940 km, 65.6° (Epoch: 16 January)

Event Time Altitude Azimuth Distance (km) Brightness Sun altitude
Rises 17:35:02 0° 327° (NNW) 3,553 7.6 -9.0°
Reaches altitude 10° 17:37:34 10° 327° (NNW) 2,595 6.9 -9.5°
Maximum altitude 17:43:36 85° 241° (WSW) 899 4.4 -10.5°
Drops below altitude 10° 17:49:28 10° 153° (SSE) 2,519 6.6 -11.5°
Sets 17:51:54 0° 152° (SSE) 3,442 7.3 -12.0°
